KKS-1 (KISEKI)

Last updated on Sat Jul 05 2025 00:03:06 GMT+0000 (Coordinated Universal Time)

1 33499U 09002H 25185.57818247 .00001093 00000+0 14574-3 0 9998 2 33499 98.1188 97.9837 0007744 346.7405 13.3603 14.81685083884694
UTC large
Height (km)
Speed (km/s)
/
Latitude / Longitude
Inclination (degrees)
Orbital Period (minutes)
Azimuth
Elevation
Range (km)
Doppler Factor

Next 0 passes for location: London (51.5072 / 0.1276)

Sorry there are no passes over London.